TimeMDT,TemperatureF,Dew PointF,Humidity,Sea Level PressureIn,VisibilityMPH,Wind Direction,Wind SpeedMPH,Gust SpeedMPH,PrecipitationIn,Events,Conditions,WindDirDegrees,DateUTC
12:15 AM,34.9,-2.7,20,30.18,10.0,Calm,Calm,-,N/A,,Clear,0,2013-04-28 06:15:00
12:35 AM,35.6,-2.6,20,30.17,10.0,SW,3.5,-,N/A,,Clear,220,2013-04-28 06:35:00
12:55 AM,36.3,-3.5,18,30.17,10.0,SSE,4.6,-,N/A,,Clear,150,2013-04-28 06:55:00
1:15 AM,39.6,-2.2,17,30.16,10.0,Calm,Calm,-,N/A,,Clear,0,2013-04-28 07:15:00
1:35 AM,32.2,-4.7,20,30.16,10.0,NNE,4.6,-,N/A,,Clear,20,2013-04-28 07:35:00
1:55 AM,33.1,-3.6,21,30.15,10.0,Calm,Calm,-,N/A,,Clear,0,2013-04-28 07:55:00
2:15 AM,32.4,-4.0,21,30.15,10.0,Calm,Calm,-,N/A,,Clear,0,2013-04-28 08:15:00
2:35 AM,31.5,-3.6,22,30.15,10.0,NE,3.5,-,N/A,,Clear,40,2013-04-28 08:35:00
2:55 AM,31.3,-2.9,23,30.15,10.0,South,4.6,-,N/A,,Clear,180,2013-04-28 08:55:00
3:15 AM,32.0,-3.1,22,30.16,10.0,South,3.5,-,N/A,,Clear,170,2013-04-28 09:15:00
3:35 AM,31.6,-3.5,22,30.16,10.0,Calm,Calm,-,N/A,,Clear,0,2013-04-28 09:35:00
3:55 AM,29.8,-5.6,22,30.15,10.0,Calm,Calm,-,N/A,,Clear,0,2013-04-28 09:55:00
4:15 AM,29.8,-4.0,23,30.15,10.0,Calm,Calm,-,N/A,,Clear,0,2013-04-28 10:15:00
4:35 AM,27.3,-5.6,24,30.15,10.0,North,3.5,-,N/A,,Clear,350,2013-04-28 10:35:00
4:55 AM,25.2,-6.2,25,30.15,10.0,NNE,5.8,-,N/A,,Clear,20,2013-04-28 10:55:00
5:15 AM,25.9,-5.1,26,30.15,10.0,NE,6.9,-,N/A,,Clear,40,2013-04-28 11:15:00
5:35 AM,25.9,-5.3,26,30.15,10.0,NNE,4.6,-,N/A,,Clear,20,2013-04-28 11:35:00
6:15 AM,25.5,-2.6,30,30.16,10.0,Calm,Calm,-,N/A,,Clear,0,2013-04-28 12:15:00
6:35 AM,27.7,-3.1,26,30.16,10.0,NE,5.8,-,N/A,,Clear,40,2013-04-28 12:35:00
7:15 AM,32.5,-0.6,24,30.17,10.0,Calm,Calm,-,N/A,,Clear,0,2013-04-28 13:15:00
7:35 AM,36.9,-1.3,20,30.18,10.0,Calm,Calm,-,N/A,,Clear,0,2013-04-28 13:35:00
7:55 AM,41.5,-1.3,17,30.18,10.0,Calm,Calm,-,N/A,,Clear,0,2013-04-28 13:55:00
8:15 AM,46.2,-0.2,15,30.18,10.0,Calm,Calm,-,N/A,,Clear,0,2013-04-28 14:15:00
8:35 AM,50.0,1.6,14,30.18,10.0,Calm,Calm,-,N/A,,Clear,0,2013-04-28 14:35:00
8:55 AM,54.1,4.5,13,30.18,10.0,Calm,Calm,-,N/A,,Clear,0,2013-04-28 14:55:00
9:15 AM,56.5,5.9,13,30.17,10.0,Calm,Calm,-,N/A,,Clear,0,2013-04-28 15:15:00
9:35 AM,61.3,8.6,12,30.17,10.0,North,3.5,-,N/A,,Clear,10,2013-04-28 15:35:00
9:55 AM,63.7,10.0,12,30.16,10.0,Calm,Calm,-,N/A,,Clear,0,2013-04-28 15:55:00
10:15 AM,66.2,11.1,12,30.16,10.0,Calm,Calm,-,N/A,,Clear,0,2013-04-28 16:15:00
10:35 AM,67.6,11.1,11,30.16,10.0,Calm,Calm,-,N/A,,Clear,0,2013-04-28 16:35:00
10:55 AM,70.0,11.7,11,30.15,10.0,Calm,Calm,-,N/A,,Clear,0,2013-04-28 16:55:00
11:15 AM,71.4,9.1,9,30.14,10.0,West,4.6,-,N/A,,Clear,270,2013-04-28 17:15:00
11:35 AM,72.5,9.7,9,30.14,10.0,WNW,9.2,-,N/A,,Clear,290,2013-04-28 17:35:00
11:55 AM,72.1,9.7,9,30.13,10.0,WSW,5.8,-,N/A,,Clear,250,2013-04-28 17:55:00
12:15 PM,73.8,9.7,9,30.12,10.0,South,9.2,-,N/A,,Clear,170,2013-04-28 18:15:00
12:35 PM,74.3,9.5,8,30.11,10.0,West,9.2,-,N/A,,Clear,270,2013-04-28 18:35:00
12:55 PM,75.0,9.3,8,30.11,10.0,West,6.9,-,N/A,,Clear,270,2013-04-28 18:55:00
1:15 PM,76.3,10.6,8,30.10,10.0,NW,16.1,24.2,N/A,,Clear,310,2013-04-28 19:15:00
1:35 PM,75.6,10.2,8,30.10,10.0,WNW,4.6,-,N/A,,Clear,300,2013-04-28 19:35:00
1:55 PM,76.8,10.9,8,30.09,10.0,WNW,13.8,24.2,N/A,,Clear,290,2013-04-28 19:55:00
2:15 PM,76.8,10.6,8,30.08,10.0,West,11.5,19.6,N/A,,Clear,260,2013-04-28 20:15:00
2:55 PM,77.5,10.0,8,30.07,10.0,West,12.7,21.9,N/A,,Clear,260,2013-04-28 20:55:00
3:15 PM,76.1,9.7,8,30.05,10.0,WNW,16.1,20.7,N/A,,Clear,300,2013-04-28 21:15:00
3:35 PM,76.5,9.7,8,30.05,10.0,NW,9.2,-,N/A,,Clear,310,2013-04-28 21:35:00
3:55 PM,76.8,9.0,7,30.04,10.0,WNW,8.1,-,N/A,,Clear,300,2013-04-28 21:55:00
4:15 PM,77.7,8.6,7,30.03,10.0,West,13.8,19.6,N/A,,Clear,270,2013-04-28 22:15:00
4:35 PM,76.8,8.2,7,30.02,10.0,NW,12.7,19.6,N/A,,Clear,310,2013-04-28 22:35:00
4:55 PM,77.2,7.3,7,30.02,10.0,WSW,12.7,20.7,N/A,,Clear,250,2013-04-28 22:55:00
5:15 PM,76.5,6.6,7,30.02,10.0,West,9.2,18.4,N/A,,Clear,280,2013-04-28 23:15:00
5:35 PM,76.6,6.8,7,30.01,10.0,WSW,10.4,18.4,N/A,,Clear,240,2013-04-28 23:35:00
5:55 PM,76.1,5.9,7,30.01,10.0,WSW,12.7,19.6,N/A,,Clear,250,2013-04-28 23:55:00
6:15 PM,75.7,5.5,7,30.00,10.0,West,16.1,-,N/A,,Clear,270,2013-04-29 00:15:00
6:35 PM,75.0,5.0,7,30.00,10.0,West,11.5,18.4,N/A,,Clear,280,2013-04-29 00:35:00
6:55 PM,73.8,4.8,7,30.00,10.0,West,10.4,-,N/A,,Clear,260,2013-04-29 00:55:00
7:15 PM,72.5,4.8,7,30.00,10.0,West,11.5,-,N/A,,Clear,260,2013-04-29 01:15:00
7:35 PM,68.0,4.1,8,30.00,10.0,SW,8.1,-,N/A,,Clear,230,2013-04-29 01:35:00
7:55 PM,63.0,3.7,9,30.01,10.0,SW,5.8,-,N/A,,Clear,230,2013-04-29 01:55:00
8:15 PM,58.1,3.0,11,30.01,10.0,SW,5.8,-,N/A,,Clear,230,2013-04-29 02:15:00
8:35 PM,57.4,0.7,10,30.01,10.0,WSW,5.8,-,N/A,,Clear,250,2013-04-29 02:35:00
8:55 PM,53.6,-0.9,11,30.02,10.0,Calm,Calm,-,N/A,,Clear,0,2013-04-29 02:55:00
9:15 PM,51.8,-0.2,12,30.02,10.0,WNW,8.1,-,N/A,,Clear,290,2013-04-29 03:15:00
9:55 PM,54.1,1.0,12,30.03,10.0,West,6.9,-,N/A,,Clear,260,2013-04-29 03:55:00
10:15 PM,49.5,-0.9,13,30.04,10.0,Calm,Calm,-,N/A,,Clear,0,2013-04-29 04:15:00
10:35 PM,51.3,-0.4,12,30.03,10.0,Calm,Calm,-,N/A,,Clear,0,2013-04-29 04:35:00
10:55 PM,48.7,-0.9,13,30.02,10.0,Calm,Calm,-,N/A,,Clear,0,2013-04-29 04:55:00
11:15 PM,46.8,-1.7,13,30.02,10.0,Calm,Calm,-,N/A,,Clear,0,2013-04-29 05:15:00
11:35 PM,48.2,-1.1,13,30.02,10.0,Calm,Calm,-,N/A,,Clear,0,2013-04-29 05:35:00